Weather History for Togiak, AK

Change the Weather History Date:

Friday, July 12, 2013

  Actual Average Record
Temperature  
Mean Temperature 58 °F -  
Max Temperature 69 °F 57 °F 73 °F (2006)
Min Temperature 46 °F 45 °F 41 °F (2002)
Degree Days  
Heating Degree Days 8    
Growing Degree Days 8 (Base 50)    
Moisture  
Dew Point 51 °F    
Average Humidity 72    
Maximum Humidity 94    
Minimum Humidity 56    
Precipitation  
Precipitation 0.00 in - - ()
Sea Level Pressure  
Sea Level Pressure 29.94 in    
Wind  
Wind Speed 8 mph (West)    
Max Wind Speed 14 mph    
Max Gust Speed -    
Visibility 10 miles    
Events      
Averages and records for this station are not official NWS values.
T = Trace of Precipitation, MM = Missing Value Source: NWS Daily Summary

Daily Weather History Graph

Daily Weather History Graph

Search for Another Location

Airport:

Trip Planner

Search our weather history database for the weather conditions in past years. The results will help you decide how hot, cold, wet, or windy it might be!

Date:

Astronomy

Jul. 12, 2013 Rise Set
Actual Time 5:49 AM AKDT 11:44 PM AKDT
Civil Twilight 4:36 AM AKDT 12:56 AM AKDT
Nautical Twilight Sun does not rise Sun does not rise
Astronomical Twilight Sun does not rise Sun does not rise
Moon 11:40 AM AKDT (7/12) 12:15 AM AKDT (7/12)
Length of Visible Light 20h 20m
Length of Day
17h 54m
Waxing Crescent, 18% of the Moon is Illuminated
Jul 12
Waxing Crescent
Jul 15
First Quarter
Jul 22
Full
Jul 29
Last Quarter
Aug 6
New

Hourly Weather History & Observations

Time (AKDT) Temp. Windchill Dew Point Humidity Pressure Visibility Wind Dir Wind Speed Gust Speed Precip Events Conditions
2:16 AM 50.0 °F - 48.2 °F 94% 29.93 in 10.0 mi North 4.6 mph - N/A   Clear
2:36 AM 48.2 °F - 46.4 °F 93% 29.93 in 10.0 mi North 4.6 mph - N/A   Clear
2:56 AM 48.2 °F - 46.4 °F 93% 29.93 in 10.0 mi North 6.9 mph - N/A   Clear
3:16 AM 50.0 °F - 46.4 °F 87% 29.93 in 10.0 mi NNE 8.1 mph - N/A   Clear
3:36 AM 48.2 °F - 46.4 °F 93% 29.93 in 10.0 mi North 9.2 mph - N/A   Clear
3:56 AM 50.0 °F - 46.4 °F 87% 29.92 in 10.0 mi North 8.1 mph - N/A   Clear
4:16 AM 48.2 °F - 46.4 °F 93% 29.93 in 10.0 mi NNE 9.2 mph - N/A   Clear
4:36 AM 48.2 °F - 44.6 °F 87% 29.92 in 10.0 mi North 9.2 mph - N/A   Clear
4:56 AM 48.2 °F - 44.6 °F 87% 29.92 in 10.0 mi North 9.2 mph - N/A   Clear
5:16 AM 48.2 °F - 44.6 °F 87% 29.93 in 10.0 mi North 8.1 mph - N/A   Clear
5:36 AM 48.2 °F - 44.6 °F 87% 29.93 in 10.0 mi North 6.9 mph - N/A   Clear
5:56 AM 48.2 °F - 44.6 °F 87% 29.93 in 10.0 mi North 9.2 mph - N/A   Clear
6:16 AM 46.4 °F 42.9 °F 44.6 °F 93% 29.94 in 10.0 mi NNE 6.9 mph - N/A   Clear
6:36 AM 46.4 °F 42.4 °F 44.6 °F 93% 29.94 in 10.0 mi NNE 8.1 mph - N/A   Clear
6:56 AM 48.2 °F - 44.6 °F 87% 29.94 in 10.0 mi North 8.1 mph - N/A   Clear
7:16 AM 48.2 °F - 44.6 °F 87% 29.95 in 10.0 mi North 8.1 mph - N/A   Clear
7:36 AM 50.0 °F - 44.6 °F 82% 29.95 in 10.0 mi North 6.9 mph - N/A   Clear
7:56 AM 51.8 °F - 46.4 °F 82% 29.95 in 10.0 mi North 6.9 mph - N/A   Clear
8:16 AM 53.6 °F - 46.4 °F 77% 29.95 in 10.0 mi North 6.9 mph - N/A   Clear
8:36 AM 55.4 °F - 46.4 °F 72% 29.95 in 10.0 mi NNE 6.9 mph - N/A   Clear
8:56 AM 55.4 °F - 48.2 °F 77% 29.95 in 10.0 mi North 8.1 mph - N/A   Clear
9:16 AM 57.2 °F - 48.2 °F 72% 29.95 in 10.0 mi North 9.2 mph - N/A   Clear
9:36 AM 59.0 °F - 48.2 °F 67% 29.96 in 10.0 mi North 8.1 mph - N/A   Clear
9:56 AM 62.6 °F - 48.2 °F 59% 29.96 in 10.0 mi NNE 8.1 mph - N/A   Clear
10:16 AM 64.4 °F - 48.2 °F 56% 29.96 in 10.0 mi NNE 5.8 mph - N/A   Clear
10:36 AM 66.2 °F - 50.0 °F 56% 29.96 in 10.0 mi NE 4.6 mph - N/A   Clear
10:56 AM 66.2 °F - 51.8 °F 60% 29.95 in 10.0 mi East 3.5 mph - N/A   Clear
11:16 AM 68.0 °F - 51.8 °F 56% 29.95 in 10.0 mi NE 3.5 mph - N/A   Clear
11:36 AM 68.0 °F - 53.6 °F 60% 29.95 in 10.0 mi South 8.1 mph - N/A   Clear
11:56 AM 66.2 °F - 51.8 °F 60% 29.96 in 10.0 mi SW 5.8 mph - N/A   Clear
12:16 PM 66.2 °F - 53.6 °F 64% 29.95 in 10.0 mi SW 8.1 mph - N/A   Clear
12:36 PM 64.4 °F - 53.6 °F 68% 29.95 in 10.0 mi SSW 9.2 mph - N/A   Clear
12:56 PM 64.4 °F - 53.6 °F 68% 29.96 in 10.0 mi SW 9.2 mph - N/A   Clear
1:16 PM 64.4 °F - 53.6 °F 68% 29.96 in 10.0 mi SSW 10.4 mph - N/A   Clear
1:36 PM 62.6 °F - 55.4 °F 77% 29.96 in 10.0 mi SSW 11.5 mph - N/A   Clear
1:56 PM 62.6 °F - 55.4 °F 77% 29.96 in 10.0 mi SW 11.5 mph - N/A   Clear
2:16 PM 62.6 °F - 55.4 °F 77% 29.96 in 10.0 mi SW 11.5 mph - N/A   Clear
2:36 PM 64.4 °F - 53.6 °F 68% 29.96 in 10.0 mi SW 11.5 mph - N/A   Clear
2:56 PM 64.4 °F - 53.6 °F 68% 29.96 in 10.0 mi SW 10.4 mph - N/A   Clear
3:16 PM 64.4 °F - 53.6 °F 68% 29.96 in 10.0 mi SW 11.5 mph - N/A   Clear
3:36 PM 64.4 °F - 53.6 °F 68% 29.96 in 10.0 mi SW 11.5 mph - N/A   Clear
3:56 PM 66.2 °F - 53.6 °F 64% 29.95 in 10.0 mi SW 11.5 mph - N/A   Clear
4:16 PM 66.2 °F - 53.6 °F 64% 29.95 in 10.0 mi SW 11.5 mph - N/A   Clear
4:36 PM 66.2 °F - 53.6 °F 64% 29.95 in 10.0 mi SW 11.5 mph - N/A   Clear
4:56 PM 66.2 °F - 53.6 °F 64% 29.95 in 10.0 mi SW 11.5 mph - N/A   Clear
5:16 PM 68.0 °F - 51.8 °F 56% 29.94 in 10.0 mi SW 10.4 mph - N/A   Clear
5:36 PM 69.8 °F - 53.6 °F 56% 29.94 in 10.0 mi SSW 10.4 mph - N/A   Clear
5:56 PM 66.2 °F - 55.4 °F 68% 29.94 in 10.0 mi SW 12.7 mph - N/A   Clear
6:16 PM 66.2 °F - 55.4 °F 68% 29.94 in 10.0 mi SW 13.8 mph - N/A   Clear
6:36 PM 66.2 °F - 53.6 °F 64% 29.94 in 10.0 mi SW 12.7 mph - N/A   Clear
6:56 PM 66.2 °F - 53.6 °F 64% 29.94 in 10.0 mi SW 12.7 mph - N/A   Clear
7:16 PM 66.2 °F - 53.6 °F 64% 29.94 in 10.0 mi SW 12.7 mph - N/A   Clear
7:36 PM 66.2 °F - 53.6 °F 64% 29.94 in 10.0 mi SW 11.5 mph - N/A   Clear
7:56 PM 66.2 °F - 53.6 °F 64% 29.93 in 10.0 mi SW 10.4 mph - N/A   Clear
8:16 PM 66.2 °F - 53.6 °F 64% 29.93 in 10.0 mi SSW 9.2 mph - N/A   Clear
8:36 PM 66.2 °F - 53.6 °F 64% 29.93 in 10.0 mi SW 10.4 mph - N/A   Clear
8:56 PM 66.2 °F - 55.4 °F 68% 29.93 in 10.0 mi SW 9.2 mph - N/A   Clear
9:16 PM 64.4 °F - 55.4 °F 73% 29.94 in 10.0 mi SSW 10.4 mph - N/A   Clear
9:36 PM 64.4 °F - 55.4 °F 73% 29.94 in 10.0 mi South 9.2 mph - N/A   Clear
9:56 PM 64.4 °F - 55.4 °F 73% 29.94 in 10.0 mi SSW 10.4 mph - N/A   Clear
10:16 PM 66.2 °F - 53.6 °F 64% 29.94 in 10.0 mi WSW 5.8 mph - N/A   Clear
10:36 PM 64.4 °F - 53.6 °F 68% 29.94 in 10.0 mi WSW 5.8 mph - N/A   Clear
10:56 PM 64.4 °F - 51.8 °F 64% 29.94 in 10.0 mi WSW 6.9 mph - N/A   Clear
11:16 PM 64.4 °F - 51.8 °F 64% 29.95 in 10.0 mi West 4.6 mph - N/A   Clear
11:36 PM 62.6 °F - 51.8 °F 68% 29.95 in 10.0 mi WSW 5.8 mph - N/A   Clear
11:56 PM 62.6 °F - 51.8 °F 68% 29.96 in 10.0 mi SSW 4.6 mph - N/A   Clear